SL-16 DEB

基本信息
目录编号:
24866
目录名称:
SL-16 DEB
国际标识:
1996-051H
轨道中心:
EARTH
物体状态:
在轨
发射日期:
1996-09-04 UTC
轨道信息
数据来源: 国际轨道数据
星历时间: 2026-07-14T01:01:50+0800
半长轴: 7234.216km
偏心率: 0.0062728
轨道倾角: 71.124°
近地点辐角: 236.560°
升交点赤经: 293.814°
平近点角: 122.951°
近地点: 810.7km
远地点: 901.458km
周期: 102.058分钟
每日圈数: 14.109628
详细信息
发射场:
TTMTR
轨道高度:
LEO
数据来源:
AOE Integration Group
参考系:
TEME
时间系统:
UTC
历元类型:
SGP4
2D轨道图
3D轨道图
轨道高度分析图
轨道倾角分析图
轨道综合分析图
查看轨道综合分析图